{"data":{"norad_id":59660,"intl_designator":"2024-084G","name":"STARLINK-31885","alt_names":[],"object_type":"PAYLOAD","status":"ACTIVE","operator":null,"country":"US","launch_date":"2024-05-06","launch_site_code":"AFETR","launch_vehicle":null,"mission":null,"orbit_class":"UNKNOWN","rcs_meters":null,"size_class":null,"mass_kg":null,"dimensions":null,"purposes":["comms"],"wikipedia_slug":null,"has_3d_model":false,"image_url":null,"decayed_at":null,"tle_current":{"epoch":"2026-05-25T04:45:15.134112Z","epoch_age_seconds":64745,"freshness":"FRESH","line1":"1 59660U 24084G   26145.19809183  .00011655  00000+0  43211-3 0  9992","line2":"2 59660  43.0006 326.3013 0001369 274.8632  85.2063 15.27600073116115","mean_motion":15.27600073,"eccentricity":0.0001369,"inclination_deg":43.0006,"raan_deg":326.3013,"arg_perigee_deg":274.8632,"mean_anomaly_deg":85.2063,"bstar":0.00043211,"rev_number":11611,"period_min":94.265510027899,"perigee_km":482.04970276644,"apogee_km":483.92827906276,"semimajor_km":6861.1259909146,"source":"CELESTRAK","updated_at":"2026-05-25T13:38:19.018734Z"}}}